Year,Month,Day,Hour,Minute,Value (Times are PST for temperature in C)
2015,07,04,00,00,21.70
2015,07,04,00,01,21.70
2015,07,04,00,02,21.70
2015,07,04,00,03,21.70
2015,07,04,00,04,21.70
2015,07,04,00,05,21.70
2015,07,04,00,06,21.70
2015,07,04,00,07,21.70
2015,07,04,00,08,21.70
2015,07,04,00,09,21.70
2015,07,04,00,10,21.70
2015,07,04,00,11,21.60
2015,07,04,00,12,21.60
2015,07,04,00,13,21.60
2015,07,04,00,14,21.60
2015,07,04,00,15,21.60
2015,07,04,00,16,21.60
2015,07,04,00,17,21.50
2015,07,04,00,18,21.40
2015,07,04,00,19,21.40
2015,07,04,00,20,21.40
2015,07,04,00,21,21.30
2015,07,04,00,22,21.30
2015,07,04,00,23,21.30
2015,07,04,00,24,21.30
2015,07,04,00,25,21.30
2015,07,04,00,26,21.30
2015,07,04,00,27,21.20
2015,07,04,00,28,21.20
2015,07,04,00,29,21.20
2015,07,04,00,30,21.20
2015,07,04,00,31,21.20
2015,07,04,00,32,21.20
2015,07,04,00,33,21.30
2015,07,04,00,34,21.30
2015,07,04,00,35,21.30
2015,07,04,00,36,21.30
2015,07,04,00,37,21.30
2015,07,04,00,38,21.30
2015,07,04,00,39,21.30
2015,07,04,00,40,21.30
2015,07,04,00,41,21.30
2015,07,04,00,42,21.30
2015,07,04,00,43,21.30
2015,07,04,00,44,21.30
2015,07,04,00,45,21.30
2015,07,04,00,46,21.30
2015,07,04,00,47,21.30
2015,07,04,00,48,21.20
2015,07,04,00,49,21.20
2015,07,04,00,50,21.30
2015,07,04,00,51,21.30
2015,07,04,00,52,21.30
2015,07,04,00,53,21.20
2015,07,04,00,54,21.20
2015,07,04,00,55,21.20
2015,07,04,00,56,21.20
2015,07,04,00,57,21.20
2015,07,04,00,58,21.10
2015,07,04,00,59,21.10
2015,07,04,01,00,21.00
2015,07,04,01,01,21.00
2015,07,04,01,02,21.00
2015,07,04,01,03,20.90
2015,07,04,01,04,20.90
2015,07,04,01,05,20.90
2015,07,04,01,06,20.80
2015,07,04,01,07,20.80
2015,07,04,01,08,20.80
2015,07,04,01,09,20.80
2015,07,04,01,10,20.80
2015,07,04,01,11,20.70
2015,07,04,01,12,20.70
2015,07,04,01,13,20.80
2015,07,04,01,14,20.80
2015,07,04,01,15,20.80
2015,07,04,01,16,20.90
2015,07,04,01,17,20.90
2015,07,04,01,18,20.90
2015,07,04,01,19,21.00
2015,07,04,01,20,21.00
2015,07,04,01,21,21.10
2015,07,04,01,22,21.20
2015,07,04,01,23,21.30
2015,07,04,01,24,21.30
2015,07,04,01,25,21.30
2015,07,04,01,26,21.30
2015,07,04,01,27,21.30
2015,07,04,01,28,21.30
2015,07,04,01,29,21.30
2015,07,04,01,30,21.30
2015,07,04,01,31,21.30
2015,07,04,01,32,21.40
2015,07,04,01,33,21.40
2015,07,04,01,34,21.40
2015,07,04,01,35,21.30
2015,07,04,01,36,21.30
2015,07,04,01,37,21.30
2015,07,04,01,38,21.30
2015,07,04,01,39,21.30
2015,07,04,01,40,21.20
2015,07,04,01,41,21.20
2015,07,04,01,42,21.20
2015,07,04,01,43,21.10
2015,07,04,01,44,21.10
2015,07,04,01,45,21.10
2015,07,04,01,46,21.00
2015,07,04,01,47,20.90
2015,07,04,01,48,20.90
2015,07,04,01,49,20.80
2015,07,04,01,50,20.80
2015,07,04,01,51,20.70
2015,07,04,01,52,20.70
2015,07,04,01,53,20.70
2015,07,04,01,54,20.60
2015,07,04,01,55,20.60
2015,07,04,01,56,20.50
2015,07,04,01,57,20.50
2015,07,04,01,58,20.50
2015,07,04,01,59,20.40
2015,07,04,02,00,20.40
2015,07,04,02,01,20.40
2015,07,04,02,02,20.30
2015,07,04,02,03,20.30
2015,07,04,02,04,20.20
2015,07,04,02,05,20.20
2015,07,04,02,06,20.20
2015,07,04,02,07,20.20
2015,07,04,02,08,20.20
2015,07,04,02,09,20.20
2015,07,04,02,10,20.10
2015,07,04,02,11,20.10
2015,07,04,02,12,20.10
2015,07,04,02,13,20.00
2015,07,04,02,14,19.90
2015,07,04,02,15,19.90
2015,07,04,02,16,19.90
2015,07,04,02,17,19.90
2015,07,04,02,18,19.90
2015,07,04,02,19,19.90
2015,07,04,02,20,19.80
2015,07,04,02,21,19.80
2015,07,04,02,22,19.70
2015,07,04,02,23,19.70
2015,07,04,02,24,19.70
2015,07,04,02,25,19.60
2015,07,04,02,26,19.60
2015,07,04,02,27,19.60
2015,07,04,02,28,19.50
2015,07,04,02,29,19.50
2015,07,04,02,30,19.50
2015,07,04,02,31,19.50
2015,07,04,02,32,19.40
2015,07,04,02,33,19.40
2015,07,04,02,34,19.40
2015,07,04,02,35,19.40
2015,07,04,02,36,19.30
2015,07,04,02,37,19.30
2015,07,04,02,38,19.30
2015,07,04,02,39,19.30
2015,07,04,02,40,19.30
2015,07,04,02,41,19.40
2015,07,04,02,42,19.40
2015,07,04,02,43,19.40
2015,07,04,02,44,19.40
2015,07,04,02,45,19.40
2015,07,04,02,46,19.40
2015,07,04,02,47,19.40
2015,07,04,02,48,19.40
2015,07,04,02,49,19.50
2015,07,04,02,50,19.50
2015,07,04,02,51,19.50
2015,07,04,02,52,19.50
2015,07,04,02,53,19.50
2015,07,04,02,54,19.40
2015,07,04,02,55,19.40
2015,07,04,02,56,19.40
2015,07,04,02,57,19.40
2015,07,04,02,58,19.40
2015,07,04,02,59,19.40
2015,07,04,03,00,19.40
2015,07,04,03,01,19.40
2015,07,04,03,02,19.30
2015,07,04,03,03,19.30
2015,07,04,03,04,19.30
2015,07,04,03,05,19.30
2015,07,04,03,06,19.30
2015,07,04,03,07,19.30
2015,07,04,03,08,19.30
2015,07,04,03,09,19.30
2015,07,04,03,10,19.20
2015,07,04,03,11,19.20
2015,07,04,03,12,19.20
2015,07,04,03,13,19.10
2015,07,04,03,14,19.10
2015,07,04,03,15,19.10
2015,07,04,03,16,19.10
2015,07,04,03,17,19.10
2015,07,04,03,18,19.10
2015,07,04,03,19,19.10
2015,07,04,03,20,19.00
2015,07,04,03,21,18.90
2015,07,04,03,22,18.90
2015,07,04,03,23,18.90
2015,07,04,03,24,18.90
2015,07,04,03,25,18.90
2015,07,04,03,26,18.90
2015,07,04,03,27,18.90
2015,07,04,03,28,18.90
2015,07,04,03,29,18.80
2015,07,04,03,30,18.80
2015,07,04,03,31,18.80
2015,07,04,03,32,18.80
2015,07,04,03,33,18.80
2015,07,04,03,34,18.80
2015,07,04,03,35,18.70
2015,07,04,03,36,18.70
2015,07,04,03,37,18.70
2015,07,04,03,38,18.70
2015,07,04,03,39,18.70
2015,07,04,03,40,18.70
2015,07,04,03,41,18.70
2015,07,04,03,42,18.70
2015,07,04,03,43,18.80
2015,07,04,03,44,18.80
2015,07,04,03,45,18.80
2015,07,04,03,46,18.80
2015,07,04,03,47,18.80
2015,07,04,03,48,18.80
2015,07,04,03,49,18.80
2015,07,04,03,50,18.80
2015,07,04,03,51,18.80
2015,07,04,03,52,18.80
2015,07,04,03,53,18.80
2015,07,04,03,54,18.70
2015,07,04,03,55,18.70
2015,07,04,03,56,18.70
2015,07,04,03,57,18.70
2015,07,04,03,58,18.70
2015,07,04,03,59,18.60
2015,07,04,04,00,18.60
2015,07,04,04,01,18.50
2015,07,04,04,02,18.50
2015,07,04,04,03,18.50
2015,07,04,04,04,18.40
2015,07,04,04,05,18.40
2015,07,04,04,06,18.30
2015,07,04,04,07,18.30
2015,07,04,04,08,18.30
2015,07,04,04,09,18.20
2015,07,04,04,10,18.20
2015,07,04,04,11,18.20
2015,07,04,04,12,18.20
2015,07,04,04,13,18.20
2015,07,04,04,14,18.20
2015,07,04,04,15,18.10
2015,07,04,04,16,18.10
2015,07,04,04,17,18.10
2015,07,04,04,18,18.10
2015,07,04,04,19,18.10
2015,07,04,04,20,18.00
2015,07,04,04,21,17.90
2015,07,04,04,22,17.90
2015,07,04,04,23,17.90
2015,07,04,04,24,17.90
2015,07,04,04,25,17.90
2015,07,04,04,26,17.80
2015,07,04,04,27,17.80
2015,07,04,04,28,17.80
2015,07,04,04,29,17.70
2015,07,04,04,30,17.70
2015,07,04,04,31,17.70
2015,07,04,04,32,17.70
2015,07,04,04,33,17.70
2015,07,04,04,34,17.60
2015,07,04,04,35,17.60
2015,07,04,04,36,17.60
2015,07,04,04,37,17.60
2015,07,04,04,38,17.60
2015,07,04,04,39,17.60
2015,07,04,04,40,17.60
2015,07,04,04,41,17.70
2015,07,04,04,42,17.70
2015,07,04,04,43,17.70
2015,07,04,04,44,17.70
2015,07,04,04,45,17.70
2015,07,04,04,46,17.70
2015,07,04,04,47,17.80
2015,07,04,04,48,17.80
2015,07,04,04,49,17.90
2015,07,04,04,50,17.90
2015,07,04,04,51,17.90
2015,07,04,04,52,18.00
2015,07,04,04,53,18.10
2015,07,04,04,54,18.10
2015,07,04,04,55,18.10
2015,07,04,04,56,18.10
2015,07,04,04,57,18.10
2015,07,04,04,58,18.10
2015,07,04,04,59,18.10
2015,07,04,05,00,18.10
2015,07,04,05,01,18.10
2015,07,04,05,02,18.00
2015,07,04,05,03,17.90
2015,07,04,05,04,17.90
2015,07,04,05,05,17.90
2015,07,04,05,06,17.90
2015,07,04,05,07,17.90
2015,07,04,05,08,17.90
2015,07,04,05,09,17.80
2015,07,04,05,10,17.80
2015,07,04,05,11,17.80
2015,07,04,05,12,17.70
2015,07,04,05,13,17.70
2015,07,04,05,14,17.70
2015,07,04,05,15,17.70
2015,07,04,05,16,17.70
2015,07,04,05,17,17.70
2015,07,04,05,18,17.70
2015,07,04,05,19,17.70
2015,07,04,05,20,17.60
2015,07,04,05,21,17.60
2015,07,04,05,22,17.60
2015,07,04,05,23,17.60
2015,07,04,05,24,17.50
2015,07,04,05,25,17.50
2015,07,04,05,26,17.50
2015,07,04,05,27,17.50
2015,07,04,05,28,17.40
2015,07,04,05,29,17.40
2015,07,04,05,30,17.40
2015,07,04,05,31,17.40
2015,07,04,05,32,17.40
2015,07,04,05,33,17.40
2015,07,04,05,34,17.40
2015,07,04,05,35,17.40
2015,07,04,05,36,17.40
2015,07,04,05,37,17.50
2015,07,04,05,38,17.50
2015,07,04,05,39,17.50
2015,07,04,05,40,17.60
2015,07,04,05,41,17.60
2015,07,04,05,42,17.60
2015,07,04,05,43,17.70
2015,07,04,05,44,17.70
2015,07,04,05,45,17.70
2015,07,04,05,46,17.70
2015,07,04,05,47,17.70
2015,07,04,05,48,17.70
2015,07,04,05,49,17.70
2015,07,04,05,50,17.70
2015,07,04,05,51,17.70
2015,07,04,05,52,17.70
2015,07,04,05,53,17.70
2015,07,04,05,54,17.70
2015,07,04,05,55,17.70
2015,07,04,05,56,17.70
2015,07,04,05,57,17.70
2015,07,04,05,58,17.60
2015,07,04,05,59,17.60
2015,07,04,06,00,17.60
2015,07,04,06,01,17.60
2015,07,04,06,02,17.60
2015,07,04,06,03,17.70
2015,07,04,06,04,17.80
2015,07,04,06,05,17.90
2015,07,04,06,06,17.90
2015,07,04,06,07,17.90
2015,07,04,06,08,17.90
2015,07,04,06,09,17.90
2015,07,04,06,10,17.90
2015,07,04,06,11,17.90
2015,07,04,06,12,17.90
2015,07,04,06,13,17.90
2015,07,04,06,14,17.90
2015,07,04,06,15,17.90
2015,07,04,06,16,17.90
2015,07,04,06,17,17.90
2015,07,04,06,18,17.90
2015,07,04,06,19,17.90
2015,07,04,06,20,17.90
2015,07,04,06,21,17.90
2015,07,04,06,22,17.90
2015,07,04,06,23,17.90
2015,07,04,06,24,17.90
2015,07,04,06,25,18.10
2015,07,04,06,26,18.10
2015,07,04,06,27,18.10
2015,07,04,06,28,18.20
2015,07,04,06,29,18.20
2015,07,04,06,30,18.20
2015,07,04,06,31,18.20
2015,07,04,06,32,18.20
2015,07,04,06,33,18.20
2015,07,04,06,34,18.20
2015,07,04,06,35,18.20
2015,07,04,06,36,18.20
2015,07,04,06,37,18.20
2015,07,04,06,38,18.20
2015,07,04,06,39,18.20
2015,07,04,06,40,18.20
2015,07,04,06,41,18.30
2015,07,04,06,42,18.30
2015,07,04,06,43,18.30
2015,07,04,06,44,18.40
2015,07,04,06,45,18.40
2015,07,04,06,46,18.40
2015,07,04,06,47,18.50
2015,07,04,06,48,18.50
2015,07,04,06,49,18.60
2015,07,04,06,50,18.60
2015,07,04,06,51,18.70
2015,07,04,06,52,18.70
2015,07,04,06,53,18.80
2015,07,04,06,54,18.90
2015,07,04,06,55,18.90
2015,07,04,06,56,18.90
2015,07,04,06,57,18.90
2015,07,04,06,58,19.00
2015,07,04,06,59,19.10
2015,07,04,07,00,19.10
2015,07,04,07,01,19.10
2015,07,04,07,02,19.10
2015,07,04,07,03,19.10
2015,07,04,07,04,19.20
2015,07,04,07,05,19.20
2015,07,04,07,06,19.20
2015,07,04,07,07,19.30
2015,07,04,07,08,19.30
2015,07,04,07,09,19.30
2015,07,04,07,10,19.40
2015,07,04,07,11,19.40
2015,07,04,07,12,19.40
2015,07,04,07,13,19.40
2015,07,04,07,14,19.50
2015,07,04,07,15,19.50
2015,07,04,07,16,19.50
2015,07,04,07,17,19.50
2015,07,04,07,18,19.60
2015,07,04,07,19,19.60
2015,07,04,07,20,19.60
2015,07,04,07,21,19.60
2015,07,04,07,22,19.60
2015,07,04,07,23,19.70
2015,07,04,07,24,19.70
2015,07,04,07,25,19.80
2015,07,04,07,26,19.80
2015,07,04,07,27,19.80
2015,07,04,07,28,19.80
2015,07,04,07,29,19.80
2015,07,04,07,30,19.80
2015,07,04,07,31,19.80
2015,07,04,07,32,19.80
2015,07,04,07,33,19.80
2015,07,04,07,34,19.80
2015,07,04,07,35,19.90
2015,07,04,07,36,19.90
2015,07,04,07,37,19.90
2015,07,04,07,38,19.90
2015,07,04,07,39,19.90
2015,07,04,07,40,19.90
2015,07,04,07,41,19.90
2015,07,04,07,42,19.90
2015,07,04,07,43,19.90
2015,07,04,07,44,19.90
2015,07,04,07,45,19.90
2015,07,04,07,46,20.10
2015,07,04,07,47,20.10
2015,07,04,07,48,20.10
2015,07,04,07,49,20.10
2015,07,04,07,50,20.10
2015,07,04,07,51,20.20
2015,07,04,07,52,20.20
2015,07,04,07,53,20.20
2015,07,04,07,54,20.20
2015,07,04,07,55,20.20
2015,07,04,07,56,20.20
2015,07,04,07,57,20.20
2015,07,04,07,58,20.20
2015,07,04,07,59,20.20
2015,07,04,08,00,20.20
2015,07,04,08,01,20.20
2015,07,04,08,02,20.20
2015,07,04,08,03,20.20
2015,07,04,08,04,20.20
2015,07,04,08,05,20.20
2015,07,04,08,06,20.20
2015,07,04,08,07,20.20
2015,07,04,08,08,20.20
2015,07,04,08,09,20.20
2015,07,04,08,10,20.20
2015,07,04,08,11,20.20
2015,07,04,08,12,20.20
2015,07,04,08,13,20.30
2015,07,04,08,14,20.30
2015,07,04,08,15,20.30
2015,07,04,08,16,20.30
2015,07,04,08,17,20.30
2015,07,04,08,18,20.30
2015,07,04,08,19,20.30
2015,07,04,08,20,20.40
2015,07,04,08,21,20.40
2015,07,04,08,22,20.40
2015,07,04,08,23,20.40
2015,07,04,08,24,20.30
2015,07,04,08,25,20.30
2015,07,04,08,26,20.30
2015,07,04,08,27,20.20
2015,07,04,08,28,20.30
2015,07,04,08,29,20.30
2015,07,04,08,30,20.30
2015,07,04,08,31,20.30
2015,07,04,08,32,20.40
2015,07,04,08,33,20.40
2015,07,04,08,34,20.40
2015,07,04,08,35,20.40
2015,07,04,08,36,20.40
2015,07,04,08,37,20.40
2015,07,04,08,38,20.50
2015,07,04,08,39,20.50
2015,07,04,08,40,20.60
2015,07,04,08,41,20.60
2015,07,04,08,42,20.60
2015,07,04,08,43,20.60
2015,07,04,08,44,20.60
2015,07,04,08,45,20.70
2015,07,04,08,46,20.80
2015,07,04,08,47,20.80
2015,07,04,08,48,20.90
2015,07,04,08,49,20.90
2015,07,04,08,50,21.00
2015,07,04,08,51,21.00
2015,07,04,08,52,21.00
2015,07,04,08,53,21.00
2015,07,04,08,54,20.90
2015,07,04,08,55,20.90
2015,07,04,08,56,20.90
2015,07,04,08,57,20.90
2015,07,04,08,58,20.80
2015,07,04,08,59,20.80
2015,07,04,09,00,20.80
2015,07,04,09,01,20.90
2015,07,04,09,02,21.00
2015,07,04,09,03,21.00
2015,07,04,09,04,21.10
2015,07,04,09,05,21.10
2015,07,04,09,06,21.10
2015,07,04,09,07,21.10
2015,07,04,09,08,21.10
2015,07,04,09,09,21.10
2015,07,04,09,10,21.10
2015,07,04,09,11,21.20
2015,07,04,09,12,21.30
2015,07,04,09,13,21.30
2015,07,04,09,14,21.30
2015,07,04,09,15,21.40
2015,07,04,09,16,21.50
2015,07,04,09,17,21.60
2015,07,04,09,18,21.60
2015,07,04,09,19,21.60
2015,07,04,09,20,21.60
2015,07,04,09,21,21.60
2015,07,04,09,22,21.60
2015,07,04,09,23,21.70
2015,07,04,09,24,21.70
2015,07,04,09,25,21.70
2015,07,04,09,26,21.80
2015,07,04,09,27,21.90
2015,07,04,09,28,21.90
2015,07,04,09,29,21.90
2015,07,04,09,30,21.90
2015,07,04,09,31,21.90
2015,07,04,09,32,22.00
2015,07,04,09,33,22.00
2015,07,04,09,34,22.00
2015,07,04,09,35,22.10
2015,07,04,09,36,22.00
2015,07,04,09,37,22.10
2015,07,04,09,38,22.20
2015,07,04,09,39,22.20
2015,07,04,09,40,22.20
2015,07,04,09,41,22.10
2015,07,04,09,42,22.10
2015,07,04,09,43,22.00
2015,07,04,09,44,22.00
2015,07,04,09,45,22.00
2015,07,04,09,46,22.00
2015,07,04,09,47,22.10
2015,07,04,09,48,22.10
2015,07,04,09,49,22.20
2015,07,04,09,50,22.30
2015,07,04,09,51,22.50
2015,07,04,09,52,22.60
2015,07,04,09,53,22.70
2015,07,04,09,54,22.80
2015,07,04,09,55,22.80
2015,07,04,09,56,22.90
2015,07,04,09,57,23.00
2015,07,04,09,58,23.10
2015,07,04,09,59,23.20
2015,07,04,10,00,23.30
2015,07,04,10,01,23.30
2015,07,04,10,02,23.30
2015,07,04,10,03,23.30
2015,07,04,10,04,23.30
2015,07,04,10,05,23.30
2015,07,04,10,06,23.30
2015,07,04,10,07,23.40
2015,07,04,10,08,23.30
2015,07,04,10,09,23.20
2015,07,04,10,10,23.10
2015,07,04,10,11,23.10
2015,07,04,10,12,23.10
2015,07,04,10,13,23.10
2015,07,04,10,14,23.10
2015,07,04,10,15,23.10
2015,07,04,10,16,23.20
2015,07,04,10,17,23.20
2015,07,04,10,18,23.30
2015,07,04,10,19,23.40
2015,07,04,10,20,23.40
2015,07,04,10,21,23.40
2015,07,04,10,22,23.40
2015,07,04,10,23,23.30
2015,07,04,10,24,23.30
2015,07,04,10,25,23.20
2015,07,04,10,26,23.20
2015,07,04,10,27,23.30
2015,07,04,10,28,23.30
2015,07,04,10,29,23.30
2015,07,04,10,30,23.30
2015,07,04,10,31,23.30
2015,07,04,10,32,23.30
2015,07,04,10,33,23.40
2015,07,04,10,34,23.40
2015,07,04,10,35,23.30
2015,07,04,10,36,23.30
2015,07,04,10,37,23.30
2015,07,04,10,38,23.30
2015,07,04,10,39,23.20
2015,07,04,10,40,23.30
2015,07,04,10,41,23.30
2015,07,04,10,42,23.30
2015,07,04,10,43,23.30
2015,07,04,10,44,23.30
2015,07,04,10,45,23.30
2015,07,04,10,46,23.30
2015,07,04,10,47,23.30
2015,07,04,10,48,23.30
2015,07,04,10,49,23.30
2015,07,04,10,50,23.20
2015,07,04,10,51,23.10
2015,07,04,10,52,23.10
2015,07,04,10,53,23.10
2015,07,04,10,54,23.10
2015,07,04,10,55,23.10
2015,07,04,10,56,23.10
2015,07,04,10,57,23.20
2015,07,04,10,58,23.20
2015,07,04,10,59,23.20
2015,07,04,11,00,23.30
2015,07,04,11,01,23.30
2015,07,04,11,02,23.30
2015,07,04,11,03,23.30
2015,07,04,11,04,23.40
2015,07,04,11,05,23.40
2015,07,04,11,06,23.50
2015,07,04,11,07,23.50
2015,07,04,11,08,23.40
2015,07,04,11,09,23.50
2015,07,04,11,10,23.40
2015,07,04,11,11,23.40
2015,07,04,11,12,23.40
2015,07,04,11,13,23.40
2015,07,04,11,14,23.40
2015,07,04,11,15,23.40
2015,07,04,11,16,23.50
2015,07,04,11,17,23.60
2015,07,04,11,18,23.70
2015,07,04,11,19,23.70
2015,07,04,11,20,23.70
2015,07,04,11,21,23.70
2015,07,04,11,22,23.70
2015,07,04,11,23,23.70
2015,07,04,11,24,23.70
2015,07,04,11,25,23.70
2015,07,04,11,26,23.70
2015,07,04,11,27,23.70
2015,07,04,11,28,23.70
2015,07,04,11,29,23.70
2015,07,04,11,30,23.70
2015,07,04,11,31,23.60
2015,07,04,11,32,23.60
2015,07,04,11,33,23.50
2015,07,04,11,34,23.40
2015,07,04,11,35,23.40
2015,07,04,11,36,23.50
2015,07,04,11,37,23.60
2015,07,04,11,38,23.60
2015,07,04,11,39,23.70
2015,07,04,11,40,23.70
2015,07,04,11,41,23.70
2015,07,04,11,42,23.70
2015,07,04,11,43,23.70
2015,07,04,11,44,23.70
2015,07,04,11,45,23.70
2015,07,04,11,46,23.70
2015,07,04,11,47,23.80
2015,07,04,11,48,23.80
2015,07,04,11,49,23.70
2015,07,04,11,50,23.70
2015,07,04,11,51,23.70
2015,07,04,11,52,23.80
2015,07,04,11,53,23.80
2015,07,04,11,54,23.90
2015,07,04,11,55,24.00
2015,07,04,11,56,24.10
2015,07,04,11,57,24.10
2015,07,04,11,58,24.20
2015,07,04,11,59,24.20
2015,07,04,12,00,24.10
2015,07,04,12,01,24.10
2015,07,04,12,02,24.10
2015,07,04,12,03,24.20
2015,07,04,12,04,24.20
2015,07,04,12,05,24.20
2015,07,04,12,06,24.20
2015,07,04,12,07,24.20
2015,07,04,12,08,24.30
2015,07,04,12,09,24.30
2015,07,04,12,10,24.40
2015,07,04,12,11,24.50
2015,07,04,12,12,24.70
2015,07,04,12,13,24.80
2015,07,04,12,14,25.00
2015,07,04,12,15,25.10
2015,07,04,12,16,25.10
2015,07,04,12,17,25.10
2015,07,04,12,18,25.20
2015,07,04,12,19,25.20
2015,07,04,12,20,25.20
2015,07,04,12,21,25.30
2015,07,04,12,22,25.30
2015,07,04,12,23,25.40
2015,07,04,12,24,25.40
2015,07,04,12,25,25.40
2015,07,04,12,26,25.40
2015,07,04,12,27,25.50
2015,07,04,12,28,25.60
2015,07,04,12,29,25.60
2015,07,04,12,30,25.60
2015,07,04,12,31,25.70
2015,07,04,12,32,25.70
2015,07,04,12,33,25.80
2015,07,04,12,34,25.80
2015,07,04,12,35,25.70
2015,07,04,12,36,25.60
2015,07,04,12,37,25.60
2015,07,04,12,38,25.50
2015,07,04,12,39,25.50
2015,07,04,12,40,25.50
2015,07,04,12,41,25.60
2015,07,04,12,42,25.70
2015,07,04,12,43,25.80
2015,07,04,12,44,25.90
2015,07,04,12,45,25.90
2015,07,04,12,46,26.00
2015,07,04,12,47,25.90
2015,07,04,12,48,25.90
2015,07,04,12,49,25.80
2015,07,04,12,50,25.70
2015,07,04,12,51,25.70
2015,07,04,12,52,25.70
2015,07,04,12,53,25.60
2015,07,04,12,54,25.60
2015,07,04,12,55,25.60
2015,07,04,12,56,25.50
2015,07,04,12,57,25.50
2015,07,04,12,58,25.40
2015,07,04,12,59,25.40
2015,07,04,13,00,25.30
2015,07,04,13,01,25.30
2015,07,04,13,02,25.30
2015,07,04,13,03,25.40
2015,07,04,13,04,25.60
2015,07,04,13,05,25.60
2015,07,04,13,06,25.70
2015,07,04,13,07,25.80
2015,07,04,13,08,25.90
2015,07,04,13,09,26.00
2015,07,04,13,10,26.00
2015,07,04,13,11,26.10
2015,07,04,13,12,26.10
2015,07,04,13,13,26.00
2015,07,04,13,14,26.00
2015,07,04,13,15,26.00
2015,07,04,13,16,26.20
2015,07,04,13,17,26.20
2015,07,04,13,18,26.30
2015,07,04,13,19,26.40
2015,07,04,13,20,26.40
2015,07,04,13,21,26.30
2015,07,04,13,22,26.30
2015,07,04,13,23,26.30
2015,07,04,13,24,26.20
2015,07,04,13,25,26.30
2015,07,04,13,26,26.40
2015,07,04,13,27,26.40
2015,07,04,13,28,26.50
2015,07,04,13,29,26.60
2015,07,04,13,30,26.60
2015,07,04,13,31,26.60
2015,07,04,13,32,26.60
2015,07,04,13,33,26.60
2015,07,04,13,34,26.70
2015,07,04,13,35,26.70
2015,07,04,13,36,26.80
2015,07,04,13,37,26.80
2015,07,04,13,38,26.80
2015,07,04,13,39,26.70
2015,07,04,13,40,26.70
2015,07,04,13,41,26.70
2015,07,04,13,42,26.70
2015,07,04,13,43,26.60
2015,07,04,13,44,26.60
2015,07,04,13,45,26.70
2015,07,04,13,46,26.80
2015,07,04,13,47,26.80
2015,07,04,13,48,26.90
2015,07,04,13,49,27.00
2015,07,04,13,50,27.10
2015,07,04,13,51,27.10
2015,07,04,13,52,27.20
2015,07,04,13,53,27.20
2015,07,04,13,54,27.10
2015,07,04,13,55,27.10
2015,07,04,13,56,27.10
2015,07,04,13,57,27.10
2015,07,04,13,58,27.00
2015,07,04,13,59,26.90
2015,07,04,14,00,27.00
2015,07,04,14,01,26.90
2015,07,04,14,02,26.90
2015,07,04,14,03,26.90
2015,07,04,14,04,27.00
2015,07,04,14,05,27.10
2015,07,04,14,06,27.20
2015,07,04,14,07,27.30
2015,07,04,14,08,27.30
2015,07,04,14,09,27.30
2015,07,04,14,10,27.30
2015,07,04,14,11,27.30
2015,07,04,14,12,27.40
2015,07,04,14,13,27.50
2015,07,04,14,14,27.60
2015,07,04,14,15,27.60
2015,07,04,14,16,27.60
2015,07,04,14,17,27.60
2015,07,04,14,18,27.60
2015,07,04,14,19,27.60
2015,07,04,14,20,27.60
2015,07,04,14,21,27.60
2015,07,04,14,22,27.60
2015,07,04,14,23,27.60
2015,07,04,14,24,27.60
2015,07,04,14,25,27.60
2015,07,04,14,26,27.60
2015,07,04,14,27,27.50
2015,07,04,14,28,27.30
2015,07,04,14,29,27.30
2015,07,04,14,30,27.40
2015,07,04,14,31,27.40
2015,07,04,14,32,27.50
2015,07,04,14,33,27.60
2015,07,04,14,34,27.60
2015,07,04,14,35,27.70
2015,07,04,14,36,27.70
2015,07,04,14,37,27.70
2015,07,04,14,38,27.70
2015,07,04,14,39,27.60
2015,07,04,14,40,27.50
2015,07,04,14,41,27.30
2015,07,04,14,42,27.30
2015,07,04,14,43,27.30
2015,07,04,14,44,27.30
2015,07,04,14,45,27.30
2015,07,04,14,46,27.40
2015,07,04,14,47,27.70
2015,07,04,14,48,27.80
2015,07,04,14,49,28.00
2015,07,04,14,50,28.00
2015,07,04,14,51,28.00
2015,07,04,14,52,28.00
2015,07,04,14,53,28.00
2015,07,04,14,54,28.00
2015,07,04,14,55,28.10
2015,07,04,14,56,28.10
2015,07,04,14,57,28.10
2015,07,04,14,58,28.10
2015,07,04,14,59,28.20
2015,07,04,15,00,28.20
2015,07,04,15,01,28.30
2015,07,04,15,02,28.20
2015,07,04,15,03,28.20
2015,07,04,15,04,28.20
2015,07,04,15,05,28.40
2015,07,04,15,06,28.60
2015,07,04,15,07,28.60
2015,07,04,15,08,28.60
2015,07,04,15,09,28.70
2015,07,04,15,10,28.70
2015,07,04,15,11,28.70
2015,07,04,15,12,28.60
2015,07,04,15,13,28.60
2015,07,04,15,14,28.60
2015,07,04,15,15,28.60
2015,07,04,15,16,28.60
2015,07,04,15,17,28.50
2015,07,04,15,18,28.40
2015,07,04,15,19,28.40
2015,07,04,15,20,28.40
2015,07,04,15,21,28.40
2015,07,04,15,22,28.50
2015,07,04,15,23,28.50
2015,07,04,15,24,28.40
2015,07,04,15,25,28.40
2015,07,04,15,26,28.40
2015,07,04,15,27,28.50
2015,07,04,15,28,28.60
2015,07,04,15,29,28.60
2015,07,04,15,30,28.70
2015,07,04,15,31,28.70
2015,07,04,15,32,28.60
2015,07,04,15,33,28.60
2015,07,04,15,34,28.40
2015,07,04,15,35,28.40
2015,07,04,15,36,28.40
2015,07,04,15,37,28.30
2015,07,04,15,38,28.30
2015,07,04,15,39,28.40
2015,07,04,15,40,28.50
2015,07,04,15,41,28.60
2015,07,04,15,42,28.60
2015,07,04,15,43,28.70
2015,07,04,15,44,28.80
2015,07,04,15,45,28.80
2015,07,04,15,46,28.80
2015,07,04,15,47,28.80
2015,07,04,15,48,28.90
2015,07,04,15,49,28.90
2015,07,04,15,50,28.90
2015,07,04,15,51,28.90
2015,07,04,15,52,28.90
2015,07,04,15,53,28.90
2015,07,04,15,54,28.90
2015,07,04,15,55,28.90
2015,07,04,15,56,28.90
2015,07,04,15,57,28.90
2015,07,04,15,58,28.90
2015,07,04,15,59,28.90
2015,07,04,16,00,28.90
2015,07,04,16,01,29.00
2015,07,04,16,02,29.10
2015,07,04,16,03,29.20
2015,07,04,16,04,29.20
2015,07,04,16,05,29.30
2015,07,04,16,06,29.20
2015,07,04,16,07,29.30
2015,07,04,16,08,29.30
2015,07,04,16,09,29.30
2015,07,04,16,10,29.20
2015,07,04,16,11,29.20
2015,07,04,16,12,29.20
2015,07,04,16,13,29.20
2015,07,04,16,14,29.30
2015,07,04,16,15,29.30
2015,07,04,16,16,29.50
2015,07,04,16,17,29.60
2015,07,04,16,18,29.70
2015,07,04,16,19,29.70
2015,07,04,16,20,29.80
2015,07,04,16,21,29.80
2015,07,04,16,22,29.80
2015,07,04,16,23,29.80
2015,07,04,16,24,29.80
2015,07,04,16,25,29.80
2015,07,04,16,26,29.80
2015,07,04,16,27,29.90
2015,07,04,16,28,29.90
2015,07,04,16,29,29.80
2015,07,04,16,30,29.80
2015,07,04,16,31,29.80
2015,07,04,16,32,29.80
2015,07,04,16,33,29.90
2015,07,04,16,34,29.80
2015,07,04,16,35,29.80
2015,07,04,16,36,29.80
2015,07,04,16,37,29.80
2015,07,04,16,38,29.80
2015,07,04,16,39,29.70
2015,07,04,16,40,29.70
2015,07,04,16,41,29.70
2015,07,04,16,42,29.70
2015,07,04,16,43,29.80
2015,07,04,16,44,29.80
2015,07,04,16,45,29.80
2015,07,04,16,46,29.80
2015,07,04,16,47,29.80
2015,07,04,16,48,29.80
2015,07,04,16,49,29.70
2015,07,04,16,50,29.70
2015,07,04,16,51,29.70
2015,07,04,16,52,29.70
2015,07,04,16,53,29.70
2015,07,04,16,54,29.70
2015,07,04,16,55,29.80
2015,07,04,16,56,29.80
2015,07,04,16,57,29.80
2015,07,04,16,58,29.70
2015,07,04,16,59,29.70
2015,07,04,17,00,29.70
2015,07,04,17,01,29.70
2015,07,04,17,02,29.80
2015,07,04,17,03,29.80
2015,07,04,17,04,29.90
2015,07,04,17,05,29.90
2015,07,04,17,06,29.90
2015,07,04,17,07,29.90
2015,07,04,17,08,29.90
2015,07,04,17,09,30.00
2015,07,04,17,10,30.10
2015,07,04,17,11,30.10
2015,07,04,17,12,30.10
2015,07,04,17,13,30.00
2015,07,04,17,14,29.90
2015,07,04,17,15,29.90
2015,07,04,17,16,29.90
2015,07,04,17,17,29.80
2015,07,04,17,18,29.80
2015,07,04,17,19,29.80